Location: Cardiff
(53.7833°N, 113.6000°W)
Time: 08:56:53
(UTC+00:00)

RS-15 - Pass Details

Date: 04 December 2023
Orbit: 1893 x 2151 km, 64.8° (Epoch: 21 February)

Event Time Altitude Azimuth Distance (km) Brightness Sun altitude
Rises 02:42:17 0° 169° (S) 5,653 10.3 -29.2°
Reaches altitude 10° 02:46:19 10° 160° (SSE) 4,640 9.8 -29.7°
Enters shadow 02:49:18 18° 150° (SSE) 3,982 9.3 -30.2°
